Weather History for KBDL - October, 2012

Change the Weather History Date:

Saturday, October 6, 2012

  Actual Average Record
Temperature  
Mean Temperature 64 °F 56 °F  
Max Temperature 78 °F 67 °F 89 °F (2007)
Min Temperature 49 °F 44 °F 24 °F (1984)
Degree Days  
Heating Degree Days 1 10  
Month to date heating degree days 11 54  
Since 1 July heating degree days 104 176  
Cooling Degree Days 0 0  
Month to date cooling degree days 0 5  
Year to date cooling degree days 980 754  
Growing Degree Days 15 (Base 50)    
Moisture  
Dew Point 53 °F    
Average Humidity 74    
Maximum Humidity 97    
Minimum Humidity 50    
Precipitation  
Precipitation 0.00 in 0.16 in 1.33 in (1955)
Month to date precipitation 0.99 0.91  
Year to date precipitation 30.48 35.06  
Snow  
Snow 0.00 in 0.00 in 0.00 in (2013)
Month to date snowfall 0.0 0.0  
Since 1 July snowfall 0.0 0.0  
Since 1 September snowfall 0.0 0.0  
Snow Depth -    
Sea Level Pressure  
Sea Level Pressure 29.83 in    
Wind  
Wind Speed 7 mph (SW)    
Max Wind Speed 24 mph    
Max Gust Speed 31 mph    
Visibility 7 miles    
Events Fog    
T = Trace of Precipitation, MM = Missing Value Source: NWS Daily Summary

Daily Weather History Graph

Daily Weather History Graph

Search for Another Location

Airport or City:

Trip Planner

Search our weather history database for the weather conditions in past years. The results will help you decide how hot, cold, wet, or windy it might be!

Date:

Astronomy

Oct. 06, 2012 Rise Set
Actual Time 6:53 AM EDT 6:23 PM EDT
Civil Twilight 6:25 AM EDT 6:50 PM EDT
Nautical Twilight 5:53 AM EDT 7:23 PM EDT
Astronomical Twilight 5:20 AM EDT 7:55 PM EDT
Moon 10:31 PM EDT (10/6) 12:50 PM EDT (10/6)
Length of Visible Light 12h 25m
Length of Day
11h 29m
Waning Gibbous, 65% of the Moon is Illuminated
Oct 6
Waning Gibbous
Oct 8
Last Quarter
Oct 15
New
Oct 21
First Quarter
Oct 29
Full

Hourly Weather History & Observations

Time (EDT) Temp. Dew Point Humidity Pressure Visibility Wind Dir Wind Speed Gust Speed Precip Events Conditions
12:51 AM 60.1 °F 57.0 °F 90% 29.89 in 6.0 mi South 5.8 mph - N/A Fog Patches of Fog
1:51 AM 59.0 °F 57.0 °F 93% 29.88 in 4.0 mi South 4.6 mph - N/A Fog Patches of Fog
2:51 AM 57.9 °F 55.9 °F 93% 29.86 in 3.0 mi SW 3.5 mph - N/A Fog Patches of Fog
3:51 AM 59.0 °F 57.0 °F 93% 29.86 in 2.5 mi Calm Calm - N/A Fog Patches of Fog
4:51 AM 57.9 °F 55.9 °F 93% 29.84 in 2.5 mi South 5.8 mph - N/A Fog Patches of Fog
5:51 AM 57.9 °F 55.9 °F 93% 29.84 in 2.0 mi South 3.5 mph - N/A Fog Patches of Fog
6:01 AM 57.2 °F 55.4 °F 94% 29.84 in 1.8 mi SW 3.5 mph - N/A   Scattered Clouds
6:51 AM 57.9 °F 55.9 °F 93% 29.83 in 0.2 mi Calm Calm - N/A Fog Fog
7:15 AM 57.2 °F 55.4 °F 94% 29.83 in 1.5 mi SW 3.5 mph - N/A   Mostly Cloudy
7:51 AM 60.8 °F 59.0 °F 94% 29.83 in 1.5 mi South 5.8 mph - N/A   Mostly Cloudy
8:51 AM 63.0 °F 60.1 °F 90% 29.82 in 1.5 mi South 9.2 mph - N/A   Mostly Cloudy
9:00 AM 64.4 °F 60.8 °F 88% 29.82 in 4.0 mi South 5.8 mph - N/A   Mostly Cloudy
9:51 AM 69.1 °F 59.0 °F 70% 29.81 in 7.0 mi South 10.4 mph - N/A   Mostly Cloudy
10:51 AM 73.0 °F 59.0 °F 61% 29.78 in 10.0 mi South 11.5 mph - N/A   Mostly Cloudy
11:51 AM 75.0 °F 57.9 °F 55% 29.75 in 10.0 mi South 12.7 mph - N/A   Mostly Cloudy
12:51 PM 77.0 °F 57.0 °F 50% 29.73 in 10.0 mi SSW 15.0 mph 21.9 mph N/A   Mostly Cloudy
1:51 PM 77.0 °F 57.0 °F 50% 29.70 in 10.0 mi SSW 11.5 mph 20.7 mph N/A   Overcast
2:51 PM 75.0 °F 57.9 °F 55% 29.71 in 10.0 mi WSW 11.5 mph 19.6 mph N/A   Overcast
3:51 PM 73.4 °F 57.2 °F 57% 29.72 in 10.0 mi SW 12.7 mph 20.7 mph N/A   Overcast
4:29 PM 60.8 °F 48.2 °F 63% 29.77 in 10.0 mi NW 20.7 mph 29.9 mph N/A   Overcast
4:51 PM 60.1 °F 48.0 °F 64% 29.78 in 10.0 mi NW 12.7 mph 25.3 mph N/A   Overcast
5:51 PM 59.0 °F 46.4 °F 63% 29.83 in 10.0 mi NNW 11.5 mph 19.6 mph N/A   Mostly Cloudy
6:51 PM 57.2 °F 44.6 °F 63% 29.85 in 10.0 mi NW 10.4 mph - N/A   Scattered Clouds
7:51 PM 54.0 °F 45.0 °F 72% 29.88 in 10.0 mi NW 6.9 mph - N/A   Partly Cloudy
8:51 PM 53.1 °F 44.1 °F 71% 29.91 in 10.0 mi NW 8.1 mph - N/A   Partly Cloudy
9:51 PM 53.1 °F 43.0 °F 69% 29.93 in 10.0 mi NNW 3.5 mph - N/A   Partly Cloudy
10:51 PM 52.0 °F 43.0 °F 71% 29.95 in 10.0 mi Calm Calm - N/A   Clear
11:51 PM 51.1 °F 39.9 °F 66% 29.96 in 10.0 mi Calm Calm - N/A   Clear